Terminal Aerodrome Forecast
Issued by NWS

Home | Current Version | Previous Version | Graphics & Text | Print | Product List | Glossary On
Versions: 1 2 3 4 5 6 7 8 9 10 11 12 13 14 15 16 17 18
000
FTUS43 KGRB 202000 AAA
TAFAUW
TAF AMD
KAUW 202035Z 2021/2118 20006KT P6SM BKN015 OVC040
      TEMPO 2021/2023 SCT015 BKN040
     FM202300 11004KT P6SM VCSH SCT035 OVC080
     FM210200 08004KT P6SM -SHRA SCT030 OVC050
     FM210700 07003KT 4SM BR SCT007 OVC030
      TEMPO 2109/2113 1SM -SHRA BR BKN007
     FM211400 VRB03KT P6SM VCSH SCT015 OVC040=

USA.gov is the U.S. government's official web portal to all federal, state and local government web resources and services.